GLO1732 SBSN-SBBE

Flight info

Callsign GLO1732
Flight time 1h 19m
Altitude 35000
Route EMAKE DCT PAKUT
Aircraft B738/M-SDE2E3FGHIRWXY/LB1

Departure

Time 2026-05-09 17:47
Airport Santarém - Maestro Wilson Fonseca International Airport (SBSN)

Arrival

Time 2026-05-09 19:06
Airport Val de Cans/Júlio Cezar Ribeiro International Airport (SBBE)
Time Latitude Longitude Altitude Speed Heading
2026-05-09 17:42 -2.42240 -54.78699 198 ft 0 kts 317°
2026-05-09 17:43 -2.42194 -54.78743 198 ft 18 kts 311°
2026-05-09 17:43 -2.42185 -54.78911 201 ft 32 kts 261°
2026-05-09 17:43 -2.42230 -54.79190 205 ft 48 kts 261°
2026-05-09 17:43 -2.42289 -54.79558 202 ft 55 kts 261°
2026-05-09 17:44 -2.42350 -54.79940 191 ft 56 kts 259°
2026-05-09 17:44 -2.42408 -54.80262 175 ft 27 kts 238°
2026-05-09 17:44 -2.42420 -54.80322 171 ft 14 kts 66°
2026-05-09 17:44 -2.42402 -54.80253 175 ft 7 kts 83°
2026-05-09 17:45 -2.42400 -54.80237 176 ft 0 kts 81°
2026-05-09 17:46 -2.42383 -54.80133 182 ft 51 kts 81°
2026-05-09 17:46 -2.42280 -54.79510 203 ft 129 kts 80°
2026-05-09 17:46 -2.42103 -54.78428 368 ft 179 kts 80°
2026-05-09 17:47 -2.41909 -54.77205 1372 ft 178 kts 82°
2026-05-09 17:47 -2.41737 -54.76037 2314 ft 173 kts 80°
2026-05-09 17:47 -2.41523 -54.74817 2890 ft 186 kts 79°
2026-05-09 17:47 -2.41283 -54.73496 3505 ft 198 kts 81°
2026-05-09 17:48 -2.41048 -54.72109 4083 ft 212 kts 81°
2026-05-09 17:48 -2.40807 -54.70607 4655 ft 229 kts 82°
2026-05-09 17:48 -2.40552 -54.68996 5328 ft 241 kts 82°
2026-05-09 17:48 -2.40276 -54.67284 5981 ft 255 kts 82°
2026-05-09 17:49 -2.39994 -54.65550 6757 ft 261 kts 82°
2026-05-09 17:49 -2.39699 -54.63738 7583 ft 266 kts 81°
2026-05-09 17:49 -2.39405 -54.61927 8421 ft 269 kts 81°
2026-05-09 17:49 -2.39102 -54.60060 9290 ft 271 kts 81°
2026-05-09 17:50 -2.38803 -54.58197 10072 ft 276 kts 81°
2026-05-09 17:50 -2.38157 -54.54217 11159 ft 304 kts 81°
2026-05-09 17:50 -2.37813 -54.52086 11623 ft 319 kts 81°
2026-05-09 17:51 -2.37342 -54.49889 12100 ft 332 kts 75°
2026-05-09 17:51 -2.36627 -54.47643 12725 ft 340 kts 71°
2026-05-09 17:51 -2.35810 -54.45414 13489 ft 343 kts 70°
2026-05-09 17:51 -2.34975 -54.43186 14172 ft 348 kts 70°
2026-05-09 17:52 -2.34133 -54.40897 14890 ft 351 kts 70°
2026-05-09 17:52 -2.33305 -54.38603 15523 ft 356 kts 70°
2026-05-09 17:52 -2.32478 -54.36280 16193 ft 359 kts 70°
2026-05-09 17:52 -2.31641 -54.33910 16805 ft 364 kts 70°
2026-05-09 17:53 -2.30791 -54.31494 17441 ft 368 kts 69°
2026-05-09 17:53 -2.29936 -54.29059 18076 ft 370 kts 70°
2026-05-09 17:53 -2.29089 -54.26647 18665 ft 374 kts 70°
2026-05-09 17:53 -2.28217 -54.24164 19256 ft 377 kts 70°
2026-05-09 17:54 -2.27349 -54.21696 19809 ft 380 kts 70°
2026-05-09 17:54 -2.26482 -54.19170 20351 ft 384 kts 71°
2026-05-09 17:54 -2.25788 -54.16608 20889 ft 387 kts 76°
2026-05-09 17:54 -2.25266 -54.13943 21388 ft 391 kts 79°
2026-05-09 17:55 -2.24842 -54.11224 21874 ft 395 kts 81°
2026-05-09 17:55 -2.24461 -54.08500 22348 ft 399 kts 81°
2026-05-09 17:55 -2.24087 -54.05735 22810 ft 403 kts 81°
2026-05-09 17:55 -2.23712 -54.02960 23301 ft 406 kts 82°
2026-05-09 17:56 -2.23329 -54.00155 23751 ft 410 kts 81°
2026-05-09 17:56 -2.22934 -53.97301 24227 ft 414 kts 81°
2026-05-09 17:56 -2.22535 -53.94458 24657 ft 418 kts 82°
2026-05-09 17:57 -2.21715 -53.88663 25490 ft 426 kts 81°
2026-05-09 17:57 -2.21295 -53.85712 25901 ft 430 kts 81°
2026-05-09 17:57 -2.20865 -53.82689 26312 ft 434 kts 81°
2026-05-09 17:57 -2.20440 -53.79718 26720 ft 437 kts 82°
2026-05-09 17:58 -2.20009 -53.76705 27113 ft 441 kts 82°
2026-05-09 17:58 -2.19574 -53.73660 27477 ft 445 kts 82°
2026-05-09 17:58 -2.19132 -53.70574 27850 ft 449 kts 82°
2026-05-09 17:58 -2.18689 -53.67476 28250 ft 452 kts 82°
2026-05-09 17:59 -2.18242 -53.64351 28645 ft 455 kts 82°
2026-05-09 17:59 -2.17794 -53.61229 29162 ft 454 kts 82°
2026-05-09 17:59 -2.17350 -53.58128 29717 ft 453 kts 82°
2026-05-09 17:59 -2.16903 -53.55005 30227 ft 452 kts 82°
2026-05-09 18:00 -2.16457 -53.51888 30693 ft 452 kts 82°
2026-05-09 18:00 -2.16009 -53.48758 31155 ft 453 kts 82°
2026-05-09 18:00 -2.15563 -53.45647 31570 ft 453 kts 82°
2026-05-09 18:00 -2.15119 -53.42545 31983 ft 454 kts 82°
2026-05-09 18:01 -2.14667 -53.39385 32368 ft 455 kts 82°
2026-05-09 18:01 -2.14224 -53.36291 32736 ft 457 kts 82°
2026-05-09 18:01 -2.13769 -53.33112 33175 ft 457 kts 82°
2026-05-09 18:01 -2.13322 -53.29998 33675 ft 456 kts 82°
2026-05-09 18:02 -2.12871 -53.26852 34176 ft 454 kts 82°
2026-05-09 18:02 -2.12422 -53.23718 34681 ft 452 kts 82°
2026-05-09 18:02 -2.11976 -53.20610 34867 ft 454 kts 82°
2026-05-09 18:03 -2.11075 -53.14325 34872 ft 449 kts 82°
2026-05-09 18:03 -2.10183 -53.08100 34875 ft 450 kts 82°
2026-05-09 18:04 -2.09290 -53.01873 34875 ft 450 kts 82°
2026-05-09 18:04 -2.08403 -52.95689 34876 ft 450 kts 82°
2026-05-09 18:05 -2.07514 -52.89498 34875 ft 450 kts 82°
2026-05-09 18:05 -2.06624 -52.83302 34873 ft 450 kts 82°
2026-05-09 18:06 -2.05733 -52.77099 34872 ft 449 kts 83°
2026-05-09 18:06 -2.04840 -52.70889 34873 ft 449 kts 82°
2026-05-09 18:07 -2.03948 -52.64688 34870 ft 449 kts 83°
2026-05-09 18:07 -2.03060 -52.58512 34869 ft 449 kts 83°
2026-05-09 18:08 -2.02170 -52.52323 34867 ft 447 kts 82°
2026-05-09 18:08 -2.01284 -52.46160 34866 ft 448 kts 82°
2026-05-09 18:09 -2.00396 -52.39993 34867 ft 448 kts 82°
2026-05-09 18:09 -1.99510 -52.33841 34866 ft 446 kts 82°
2026-05-09 18:10 -1.98621 -52.27658 34867 ft 447 kts 83°
2026-05-09 18:10 -1.97735 -52.21506 34865 ft 445 kts 82°
2026-05-09 18:11 -1.96849 -52.15358 34856 ft 447 kts 83°
2026-05-09 18:11 -1.95966 -52.09226 34845 ft 446 kts 83°
2026-05-09 18:12 -1.95077 -52.03061 34845 ft 446 kts 83°
2026-05-09 18:12 -1.94195 -51.96942 34846 ft 445 kts 83°
2026-05-09 18:13 -1.93311 -51.90817 34845 ft 446 kts 83°
2026-05-09 18:13 -1.92421 -51.84638 34847 ft 447 kts 83°
2026-05-09 18:14 -1.91535 -51.78503 34850 ft 446 kts 83°
2026-05-09 18:14 -1.90654 -51.72396 34850 ft 444 kts 83°
2026-05-09 18:15 -1.89775 -51.66304 34852 ft 446 kts 83°
2026-05-09 18:15 -1.88891 -51.60177 34850 ft 445 kts 83°
2026-05-09 18:16 -1.88005 -51.54041 34854 ft 445 kts 83°
2026-05-09 18:16 -1.87127 -51.47962 34855 ft 445 kts 82°
2026-05-09 18:17 -1.86237 -51.41797 34856 ft 446 kts 82°
2026-05-09 18:17 -1.85352 -51.35675 34858 ft 445 kts 83°
2026-05-09 18:18 -1.84468 -51.29565 34860 ft 444 kts 82°
2026-05-09 18:18 -1.83589 -51.23484 34859 ft 444 kts 82°
2026-05-09 18:19 -1.82701 -51.17350 34861 ft 445 kts 82°
2026-05-09 18:19 -1.81372 -51.08170 34864 ft 444 kts 82°
2026-05-09 18:20 -1.80485 -51.02035 34863 ft 444 kts 82°
2026-05-09 18:20 -1.79514 -50.95966 34864 ft 443 kts 79°
2026-05-09 18:21 -1.78099 -50.89957 34866 ft 444 kts 76°
2026-05-09 18:21 -1.76544 -50.83949 34864 ft 445 kts 76°
2026-05-09 18:22 -1.75007 -50.77945 34864 ft 444 kts 76°
2026-05-09 18:22 -1.73506 -50.71966 34867 ft 443 kts 77°
2026-05-09 18:23 -1.72026 -50.65995 34868 ft 444 kts 77°
2026-05-09 18:23 -1.70555 -50.60014 34872 ft 443 kts 77°
2026-05-09 18:24 -1.69075 -50.53991 34877 ft 444 kts 77°
2026-05-09 18:25 -1.66861 -50.44982 34880 ft 444 kts 77°
2026-05-09 18:25 -1.65382 -50.38961 34882 ft 442 kts 77°
2026-05-09 18:26 -1.63908 -50.32961 34881 ft 443 kts 77°
2026-05-09 18:26 -1.62441 -50.26987 34881 ft 442 kts 77°
2026-05-09 18:26 -1.61701 -50.23982 34675 ft 440 kts 76°
2026-05-09 18:27 -1.60977 -50.21039 34227 ft 436 kts 76°
2026-05-09 18:27 -1.60488 -50.19054 33896 ft 432 kts 76°
2026-05-09 18:27 -1.59545 -50.15218 33423 ft 423 kts 76°
2026-05-09 18:27 -1.58837 -50.12336 32962 ft 418 kts 76°
2026-05-09 18:28 -1.58148 -50.09532 32512 ft 414 kts 76°
2026-05-09 18:28 -1.57465 -50.06750 32063 ft 410 kts 76°
2026-05-09 18:28 -1.56783 -50.03974 31602 ft 407 kts 76°
2026-05-09 18:28 -1.56105 -50.01213 31132 ft 404 kts 76°
2026-05-09 18:29 -1.55446 -49.98533 30682 ft 400 kts 76°
2026-05-09 18:29 -1.54787 -49.95849 30222 ft 397 kts 76°
2026-05-09 18:29 -1.54127 -49.93159 29768 ft 393 kts 76°
2026-05-09 18:29 -1.53477 -49.90517 29317 ft 389 kts 75°
2026-05-09 18:30 -1.52826 -49.87870 28864 ft 386 kts 76°
2026-05-09 18:30 -1.52189 -49.85276 28420 ft 382 kts 76°
2026-05-09 18:30 -1.51562 -49.82726 27985 ft 378 kts 75°
2026-05-09 18:30 -1.50928 -49.80143 27549 ft 375 kts 75°
2026-05-09 18:31 -1.50308 -49.77620 27120 ft 371 kts 76°
2026-05-09 18:31 -1.49698 -49.75137 26702 ft 367 kts 75°
2026-05-09 18:31 -1.49088 -49.72659 26276 ft 364 kts 75°
2026-05-09 18:31 -1.48489 -49.70222 25857 ft 360 kts 76°
2026-05-09 18:32 -1.47898 -49.67819 25443 ft 357 kts 76°
2026-05-09 18:32 -1.47310 -49.65425 25027 ft 353 kts 76°
2026-05-09 18:32 -1.46718 -49.63024 24610 ft 350 kts 76°
2026-05-09 18:32 -1.46141 -49.60677 24199 ft 346 kts 76°
2026-05-09 18:33 -1.45571 -49.58360 23796 ft 342 kts 76°
2026-05-09 18:33 -1.45004 -49.56057 23392 ft 339 kts 76°
2026-05-09 18:33 -1.44434 -49.53743 22985 ft 336 kts 76°
2026-05-09 18:33 -1.43886 -49.51514 22594 ft 332 kts 76°
2026-05-09 18:34 -1.43330 -49.49253 22192 ft 329 kts 76°
2026-05-09 18:34 -1.42786 -49.47041 21815 ft 326 kts 76°
2026-05-09 18:34 -1.42248 -49.44853 21429 ft 323 kts 75°
2026-05-09 18:34 -1.41712 -49.42672 21040 ft 321 kts 76°
2026-05-09 18:35 -1.41175 -49.40488 20648 ft 318 kts 75°
2026-05-09 18:35 -1.40652 -49.38360 20263 ft 316 kts 75°
2026-05-09 18:35 -1.40122 -49.36209 19880 ft 313 kts 75°
2026-05-09 18:35 -1.39601 -49.34095 19499 ft 311 kts 75°
2026-05-09 18:36 -1.39099 -49.32056 19131 ft 308 kts 75°
2026-05-09 18:36 -1.38593 -49.30000 18762 ft 306 kts 75°
2026-05-09 18:36 -1.38086 -49.27937 18503 ft 299 kts 75°
2026-05-09 18:36 -1.37595 -49.25940 18155 ft 296 kts 75°
2026-05-09 18:37 -1.37101 -49.23931 17789 ft 294 kts 74°
2026-05-09 18:37 -1.36738 -49.22461 17520 ft 292 kts 74°
2026-05-09 18:37 -1.36246 -49.20467 17161 ft 295 kts 74°
2026-05-09 18:37 -1.35734 -49.18402 16780 ft 308 kts 74°
2026-05-09 18:38 -1.35225 -49.16342 16398 ft 308 kts 75°
2026-05-09 18:38 -1.34883 -49.14956 16142 ft 306 kts 75°
2026-05-09 18:38 -1.34406 -49.13015 15781 ft 303 kts 75°
2026-05-09 18:40 -1.31050 -48.99397 13256 ft 283 kts 76°
2026-05-09 18:40 -1.30639 -48.97725 12946 ft 281 kts 76°
2026-05-09 18:40 -1.30175 -48.95840 12596 ft 278 kts 76°
2026-05-09 18:41 -1.29742 -48.94075 12264 ft 275 kts 76°
2026-05-09 18:41 -1.29348 -48.92475 11963 ft 273 kts 76°
2026-05-09 18:41 -1.28885 -48.90596 11612 ft 270 kts 76°
2026-05-09 18:41 -1.28446 -48.88814 11280 ft 268 kts 76°
2026-05-09 18:42 -1.28043 -48.87182 10974 ft 265 kts 76°
2026-05-09 18:42 -1.27595 -48.85369 10635 ft 263 kts 77°
2026-05-09 18:42 -1.27181 -48.83687 10318 ft 261 kts 77°
2026-05-09 18:42 -1.26747 -48.81926 9987 ft 258 kts 77°
2026-05-09 18:43 -1.26316 -48.80175 9798 ft 250 kts 77°
2026-05-09 18:43 -1.25907 -48.78509 9491 ft 248 kts 77°
2026-05-09 18:43 -1.25496 -48.76831 9173 ft 246 kts 77°
2026-05-09 18:43 -1.25090 -48.75185 8863 ft 244 kts 77°
2026-05-09 18:44 -1.24676 -48.73506 8562 ft 254 kts 77°
2026-05-09 18:44 -1.24247 -48.71757 8220 ft 260 kts 78°
2026-05-09 18:44 -1.23816 -48.70013 7906 ft 257 kts 77°
2026-05-09 18:44 -1.23387 -48.68280 7578 ft 255 kts 78°
2026-05-09 18:45 -1.22959 -48.66562 7262 ft 252 kts 78°
2026-05-09 18:45 -1.22575 -48.65016 6966 ft 250 kts 78°
2026-05-09 18:45 -1.22241 -48.63657 6716 ft 248 kts 78°
2026-05-09 18:45 -1.21827 -48.61976 6406 ft 245 kts 78°
2026-05-09 18:46 -1.21450 -48.60447 6124 ft 243 kts 78°
2026-05-09 18:46 -1.21044 -48.58805 5822 ft 241 kts 78°
2026-05-09 18:46 -1.20645 -48.57181 5518 ft 240 kts 78°
2026-05-09 18:46 -1.20301 -48.55786 5295 ft 237 kts 78°
2026-05-09 18:47 -1.19909 -48.54210 5176 ft 230 kts 78°
2026-05-09 18:47 -1.19655 -48.53184 5147 ft 238 kts 78°
2026-05-09 18:47 -1.19244 -48.51514 5063 ft 250 kts 78°
2026-05-09 18:47 -1.18828 -48.49827 4985 ft 252 kts 78°
2026-05-09 18:48 -1.18404 -48.48112 4824 ft 246 kts 78°
2026-05-09 18:48 -1.17993 -48.46448 4503 ft 245 kts 77°
2026-05-09 18:48 -1.17584 -48.44801 4373 ft 235 kts 78°
2026-05-09 18:48 -1.17201 -48.43255 4321 ft 223 kts 78°
2026-05-09 18:49 -1.16837 -48.41772 4284 ft 214 kts 78°
2026-05-09 18:49 -1.16630 -48.40278 4238 ft 217 kts 94°
2026-05-09 18:49 -1.17114 -48.38878 4124 ft 212 kts 127°
2026-05-09 18:49 -1.18165 -48.38031 3896 ft 215 kts 152°
2026-05-09 18:50 -1.19548 -48.37432 3635 ft 214 kts 154°
2026-05-09 18:50 -1.20921 -48.36831 3380 ft 213 kts 153°
2026-05-09 18:50 -1.22279 -48.36209 3129 ft 212 kts 153°
2026-05-09 18:50 -1.23632 -48.35598 2947 ft 211 kts 155°
2026-05-09 18:51 -1.25074 -48.35245 2773 ft 216 kts 179°
2026-05-09 18:51 -1.26506 -48.35755 2622 ft 224 kts 218°
2026-05-09 18:51 -1.27588 -48.36912 2443 ft 227 kts 229°
2026-05-09 18:51 -1.28597 -48.38125 2175 ft 227 kts 227°
2026-05-09 18:52 -1.29502 -48.39105 1990 ft 224 kts 224°
2026-05-09 18:52 -1.30546 -48.40170 1881 ft 203 kts 223°
2026-05-09 18:52 -1.31511 -48.41141 1891 ft 184 kts 223°
2026-05-09 18:52 -1.32379 -48.42018 1892 ft 169 kts 223°
2026-05-09 18:53 -1.33180 -48.42824 1878 ft 157 kts 223°
2026-05-09 18:53 -1.33936 -48.43585 1882 ft 151 kts 222°
2026-05-09 18:53 -1.34694 -48.44347 1693 ft 154 kts 223°
2026-05-09 18:53 -1.35455 -48.45114 1288 ft 154 kts 224°
2026-05-09 18:54 -1.36195 -48.45878 902 ft 151 kts 224°
2026-05-09 18:54 -1.36918 -48.46590 564 ft 144 kts 224°
2026-05-09 18:54 -1.37617 -48.47288 265 ft 138 kts 226°
2026-05-09 18:54 -1.38261 -48.47994 216 ft 139 kts 228°
2026-05-09 18:55 -1.38966 -48.48755 905 ft 154 kts 226°
2026-05-09 18:55 -1.39772 -48.49578 1600 ft 179 kts 226°
2026-05-09 18:55 -1.40341 -48.50825 1983 ft 228 kts 264°
2026-05-09 18:55 -1.40000 -48.52586 1999 ft 293 kts 299°
2026-05-09 18:56 -1.38585 -48.54254 1989 ft 325 kts 322°
2026-05-09 18:56 -1.36817 -48.55541 1984 ft 305 kts 327°
2026-05-09 18:56 -1.35138 -48.56753 1983 ft 287 kts 324°
2026-05-09 18:56 -1.33632 -48.58004 1987 ft 276 kts 320°
2026-05-09 18:57 -1.32236 -48.59319 2043 ft 275 kts 316°
2026-05-09 18:57 -1.30858 -48.60657 2218 ft 271 kts 323°
2026-05-09 18:57 -1.29167 -48.61418 2392 ft 267 kts 355°
2026-05-09 18:57 -1.27349 -48.61213 2580 ft 262 kts 24°
2026-05-09 18:58 -1.25801 -48.60291 2763 ft 259 kts 44°
2026-05-09 18:58 -1.24643 -48.58910 2941 ft 258 kts 60°
2026-05-09 18:58 -1.23819 -48.57325 2977 ft 259 kts 67°
2026-05-09 18:58 -1.23123 -48.55658 2980 ft 257 kts 70°
2026-05-09 18:59 -1.22462 -48.54010 2982 ft 256 kts 69°
2026-05-09 18:59 -1.21788 -48.52365 2985 ft 257 kts 69°
2026-05-09 18:59 -1.21099 -48.50722 2984 ft 256 kts 69°
2026-05-09 18:59 -1.20398 -48.49064 2981 ft 256 kts 68°
2026-05-09 19:00 -1.19709 -48.47438 2986 ft 255 kts 69°
2026-05-09 19:00 -1.18327 -48.44159 2987 ft 256 kts 69°
2026-05-09 19:00 -1.17657 -48.42486 2988 ft 257 kts 73°
2026-05-09 19:01 -1.17363 -48.40792 2982 ft 244 kts 94°
2026-05-09 19:01 -1.17839 -48.39217 2998 ft 234 kts 120°
2026-05-09 19:01 -1.18852 -48.38001 2987 ft 219 kts 135°
2026-05-09 19:01 -1.20034 -48.37140 2967 ft 206 kts 149°
2026-05-09 19:02 -1.21336 -48.36555 2789 ft 202 kts 155°
2026-05-09 19:02 -1.22624 -48.36030 2583 ft 197 kts 154°
2026-05-09 19:02 -1.23874 -48.35501 2444 ft 189 kts 155°
2026-05-09 19:02 -1.25157 -48.35242 2293 ft 192 kts 182°
2026-05-09 19:03 -1.26379 -48.35783 2184 ft 197 kts 219°
2026-05-09 19:03 -1.27305 -48.36786 2072 ft 190 kts 227°
2026-05-09 19:03 -1.28197 -48.37778 1968 ft 193 kts 224°
2026-05-09 19:03 -1.29128 -48.38730 1876 ft 190 kts 223°
2026-05-09 19:04 -1.30075 -48.39678 1760 ft 191 kts 223°
2026-05-09 19:04 -1.30984 -48.40599 1682 ft 175 kts 223°
2026-05-09 19:04 -1.31795 -48.41453 1426 ft 167 kts 225°
2026-05-09 19:04 -1.32581 -48.42275 1096 ft 158 kts 225°
2026-05-09 19:05 -1.33333 -48.43036 834 ft 149 kts 223°
2026-05-09 19:05 -1.34050 -48.43736 702 ft 143 kts 223°
2026-05-09 19:05 -1.34766 -48.44440 726 ft 144 kts 224°
2026-05-09 19:05 -1.35494 -48.45143 614 ft 147 kts 223°
2026-05-09 19:06 -1.36205 -48.45863 329 ft 143 kts 226°
2026-05-09 19:06 -1.36883 -48.46552 117 ft 134 kts 224°
2026-05-09 19:06 -1.37474 -48.47145 53 ft 98 kts 225°
2026-05-09 19:06 -1.37800 -48.47477 47 ft 40 kts 226°
2026-05-09 19:07 -1.38019 -48.47699 46 ft 44 kts 225°
2026-05-09 19:07 -1.38243 -48.47923 46 ft 51 kts 225°
2026-05-09 19:07 -1.38502 -48.48186 46 ft 48 kts 225°
2026-05-09 19:07 -1.38671 -48.48328 43 ft 12 kts 141°
2026-05-09 19:08 -1.38681 -48.48262 44 ft 8 kts 90°
2026-05-09 19:08 -1.38681 -48.48207 45 ft 6 kts 90°
2026-05-09 19:08 -1.38680 -48.48165 46 ft 5 kts 88°
2026-05-09 19:08 -1.38678 -48.48117 45 ft 9 kts 88°
2026-05-09 19:09 -1.38678 -48.48049 44 ft 9 kts 103°
2026-05-09 19:09 -1.38715 -48.48029 44 ft 4 kts 177°
2026-05-09 19:09 -1.38722 -48.48029 43 ft 0 kts 177°